CAPE
4 3 2 2 1 1 1 0 0 0 0 0 0 0 0 0 0 0 0 0 20 780 376 341 107 75 168 515 390 400 151 165 77 227 160 17 33 29 2 0 0 0 0 0 9
3 2 2 1 1 1 0 0 0 0 0 0 0 0 0 0 0 0 0 311 562 848 80 7 27 191 518 557 399 126 61 44 47 6 124 204 75 32 10 1 0 0 0 0 6
3 2 1 1 1 1 1 1 0 0 0 0 0 0 0 0 0 0 325 738 771 770 110 61 224 531 755 184 174 48 35 37 50 0 60 250 367 117 0 0 0 0 0 0 0
3 2 1 1 1 1 1 1 0 0 0 0 0 0 0 0 0 0 868 924 618 292 97 9 82 157 28 128 171 79 26 10 13 112 168 318 381 344 185 3 0 0 0 0 0
2 2 2 2 2 2 2 1 1 0 0 0 0 0 0 0 0 0 1101 810 130 133 58 12 93 143 61 12 167 91 38 29 31 149 168 183 154 111 196 0 0 0 0 0 0
2 2 1 1 2 3 2 3 2 0 0 0 0 0 0 0 0 0 1 133 0 0 0 17 44 63 33 5 42 98 79 17 32 77 73 311 185 19 197 46 0 0 0 0 0
4 4 4 1 1 2 3 2 1 0 0 0 0 0 0 0 0 0 0 0 0 0 0 1 26 38 1 0 1 54 119 186 88 101 45 66 95 199 30 12 13 0 0 0 0
1 4 4 3 2 2 3 1 0 0 0 0 0 0 0 0 0 0 0 0 0 0 0 0 0 2 0 0 0 23 31 21 225 97 54 82 59 18 9 120 68 0 0 0 0
3 3 4 3 4 3 3 2 0 0 0 0 0 0 0 0 0 0 0 0 0 0 0 0 0 0 0 0 0 0 2 46 67 168 89 45 73 0 15 49 3 0 0 0 0
0 0 0 1 1 1 2 0 0 0 0 0 0 0 0 0 0 0 0 0 0 0 0 0 0 0 0 0 0 7 153 107 83 196 57 16 0 2 0 0 0 29 0 0 0
0 0 0 0 0 0 0 0 0 0 0 0 0 0 0 0 0 0 0 0 0 0 0 0 0 0 0 0 0 0 0 72 58 211 32 6 2 1 0 0 0 78 0 0 0
0 0 0 0 0 0 0 0 0 0 0 0 0 0 0 0 0 0 0 0 0 0 0 0 0 0 0 0 0 0 1 66 125 143 23 9 2 0 0 37 18 126 258 14 0
0 0 0 0 0 0 0 0 0 0 0 0 0 0 0 0 0 0 0 0 0 0 0 0 0 0 0 0 0 0 0 23 84 151 77 39 2 5 12 39 264 225 257 193 0
1 0 0 0 0 0 0 0 0 0 0 0 0 0 0 0 0 0 0 0 0 0 0 0 0 0 0 0 0 0 0 7 145 55 23 42 9 64 4 4 85 154 238 76 116
1 0 0 0 0 0 0 0 0 0 0 0 0 0 0 0 0 0 0 0 0 0 0 0 0 0 0 0 0 0 0 3 156 51 16 74 23 0 53 8 7 32 204 40 78
0 0 2 0 0 0 0 0 0 0 0 0 0 0 0 0 0 0 0 0 0 0 0 0 0 0 0 0 0 0 0 0 22 10 0 0 7 0 63 15 33 1 44 177 118
0 0 2 0 0 0 0 0 0 0 0 0 0 0 0 0 0 0 0 0 0 0 0 0 0 0 0 0 0 0 0 0 1 7 0 0 0 0 17 50 85 95 45 87 221
0 0 0 0 0 0 0 0 0 0 0 0 0 0 0 0 0 0 0 0 0 0 0 0 0 0 0 0 0 0 0 0 0 0 0 0 0 0 0 63 173 159 141 245 268
0 0 0 0 0 0 0 0 0 0 0 0 0 0 0 0 0 0 0 0 0 0 0 0 0 0 0 0 0 0 0 0 0 0 0 0 0 13 44 52 57 171 191 452 501
0 0 0 0 0 0 0 0 0 0 0 0 0 0 0 0 0 0 0 0 0 0 0 0 0 0 0 0 0 0 0 0 0 0 0 0 0 42 71 31 111 27 159 670 833
0 10 0 0 0 0 0 0 0 0 0 0 0 0 0 0 0 0 0 0 0 0 0 0 0 0 0 0 0 0 0 0 0 0 0 0 0 0 33 0 44 117 11 29 446
0 136 0 0 0 0 0 0 0 0 0 0 0 0 0 0 0 0 0 0 0 0 0 0 0 0 0 0 0 0 0 0 0 0 0 0 0 0 14 0 0 78 88 267 349
0 0 2 0 0 0 0 0 0 0 0 0 0 0 0 0 0 0 0 0 0 0 0 0 0 0 0 0 0 0 0 0 0 0 0 0 0 0 0 130 436 637 840 942 853
0 0 0 0 0 0 0 0 0 0 0 0 0 0 0 0 0 0 0 0 0 0 60 0 0 0 0 0 0 0 0 0 0 0 0 0 0 23 4 20 302 967 821 674 629
0 0 0 0 0 0 0 0 0 0 0 0 0 0 0 0 0 0 0 0 0 0 0 0 0 0 0 0 0 0 0 0 0 0 0 0 0 468 3 536 790 855 744 565 426
0 0 0 0 0 0 0 0 0 0 0 0 0 0 0 0 0 0 0 0 0 0 0 0 0 0 0 0 0 0 0 0 2 0 178 610 1153 1117 1043 905 697 624 492 362 277
0 0 0 0 0 0 0 0 0 0 0 0 0 0 0 0 0 0 0 0 0 0 0 0 0 0 0 0 0 0 176 327 309 234 389 731 980 839 736 705 348 262 254 182 39
CIN
0 0 0 0 0 0 0 0 0 0 0 0 0 0 0 0 0 0 0 0 -338 -460 -455 -364 -348 -263 -178 -96 -131 -118 -93 -44 -81 -35 -65 -49 -52 -106 -60 0 0 0 0 0 -64
0 0 0 0 0 0 0 0 0 0 0 0 0 0 0 0 0 0 0 -523 -528 -465 -383 -340 -264 -183 -104 -124 -103 -149 -125 -140 -188 -95 -115 -99 -52 -85 -129 -104 0 0 0 0 -85
0 0 0 0 0 0 0 0 0 0 0 0 0 0 0 0 0 0 -503 -509 -527 -501 -289 -242 -158 -95 -85 -109 -165 -148 -91 -200 -242 0 -186 -108 -45 -109 -22 0 0 0 0 0 0
0 0 0 0 0 0 0 0 0 0 0 0 0 0 0 0 0 0 -449 -479 -494 -490 -336 -221 -134 -116 -100 -99 -106 -82 -131 -203 -219 -133 -118 -55 -64 -65 -75 -96 0 0 0 0 0
0 0 0 0 0 0 0 0 0 0 0 0 0 0 0 0 0 0 -393 -466 -552 -501 -335 -233 -158 -98 -64 -40 -74 -62 -36 -96 -164 -140 -63 -41 -53 -70 -27 -38 0 0 0 0 0
0 0 0 0 0 0 0 0 0 0 0 0 0 0 0 0 0 0 -13 -569 0 0 0 -270 -163 -93 -73 -60 -45 -114 -162 -207 -160 -132 -153 -52 -22 -79 -11 -33 0 0 0 0 0
0 0 0 0 0 0 0 0 0 0 0 0 0 0 0 0 0 0 0 0 0 0 0 -74 -166 -121 -7 0 -1 -70 -159 -130 -155 -175 -188 -169 -32 -1 -82 -60 -51 0 0 0 0
0 0 0 0 0 0 0 0 0 0 0 0 0 0 0 0 0 0 0 0 0 0 0 0 0 -194 0 0 0 -28 -107 -139 -147 -217 -274 -163 -105 -191 -208 -84 -33 0 0 0 0
0 0 0 0 0 0 0 0 0 0 0 0 0 0 0 0 0 0 0 0 0 0 0 0 0 0 0 0 0 0 -8 -162 -174 -186 -286 -245 -115 0 -216 -106 -114 -17 0 0 0
0 0 0 0 0 0 0 0 0 0 0 0 0 0 0 0 0 0 0 0 0 0 0 0 0 0 0 0 0 -24 -52 -84 -127 -244 -305 -313 -50 -234 0 0 0 -107 0 0 0
0 0 0 0 0 0 0 0 0 0 0 0 0 0 0 0 0 0 0 0 0 0 0 0 0 0 0 0 0 0 0 -41 -207 -271 -353 -319 -117 -79 0 0 0 -66 0 0 0
0 0 0 0 0 0 0 0 0 0 0 0 0 0 0 0 0 0 0 0 0 0 0 0 0 0 0 0 0 0 -6 -73 -176 -257 -299 -335 -126 0 0 -263 -301 -197 -90 -98 0
0 0 0 0 0 0 0 0 0 0 0 0 0 0 0 0 0 0 0 0 0 0 0 0 0 0 0 0 0 0 0 -99 -108 -252 -243 -304 -145 -247 -264 -315 -182 -202 -158 -110 -20
0 0 0 0 0 0 0 0 0 0 0 0 0 0 0 0 0 0 0 0 0 0 0 0 0 0 0 0 0 0 0 -24 -150 -185 -111 -203 -60 -167 -180 -110 -278 -244 -205 -246 -132
0 0 0 0 0 0 0 0 0 0 0 0 0 0 0 0 0 0 0 0 0 0 0 0 0 0 0 0 0 0 0 -10 -117 -106 -108 -189 -147 0 -264 -265 -328 -345 -305 -458 -252
0 0 0 0 0 0 0 0 0 0 0 0 0 0 0 0 0 0 0 0 0 0 0 0 0 0 0 0 0 0 0 0 -41 -30 0 0 -105 0 -286 -256 -315 -146 -332 -290 -292
0 0 0 0 0 0 0 0 0 0 0 0 0 0 0 0 0 0 0 0 0 0 0 0 0 0 0 0 0 0 0 0 -14 -12 0 0 0 0 -226 -207 -304 -390 -296 -238 -271
0 0 0 0 0 0 0 0 0 0 0 0 0 0 0 0 0 0 0 0 0 0 0 0 0 0 0 0 0 0 0 0 0 0 0 0 0 0 0 -135 -205 -214 -306 -299 -274
0 0 0 0 0 0 0 0 0 0 0 0 0 0 0 0 0 0 0 0 0 0 0 0 0 0 0 0 0 0 0 0 0 0 0 0 0 -140 -236 -243 -255 -212 -306 -244 -236
0 0 0 0 0 0 0 0 0 0 0 0 0 0 0 0 0 0 0 0 0 0 0 0 0 0 0 0 0 0 0 0 0 0 0 0 0 -81 -185 -209 -187 -169 -203 -130 -160
0 -191 0 0 0 0 0 0 0 0 0 0 0 0 0 0 0 0 0 0 0 0 0 0 0 0 0 0 0 0 0 0 0 0 0 0 0 0 -136 0 -148 -143 -278 -258 -244
0 -102 0 0 0 0 0 0 0 0 0 0 0 0 0 0 0 0 0 0 0 0 0 0 0 0 0 0 0 0 0 0 0 0 0 0 0 0 -112 0 0 -463 -486 -353 -367
0 0 -10 0 0 0 0 0 0 0 0 0 0 0 0 0 0 0 0 0 0 0 0 0 0 0 0 0 0 0 0 0 0 0 0 0 0 0 -11 -158 -179 -224 -209 -189 -79
0 0 0 0 0 0 0 0 0 0 0 0 0 0 0 0 0 0 0 0 0 0 -164 0 0 0 0 0 0 0 0 0 0 0 0 0 0 -154 -228 -170 -149 -277 -260 -286 -370
0 0 0 0 0 0 0 0 0 0 0 0 0 0 0 0 0 0 0 0 0 0 0 0 0 0 0 0 0 0 0 0 0 0 0 0 0 -207 -53 -175 -224 -278 -295 -389 -425
0 0 0 0 0 0 0 0 0 0 0 0 0 0 0 0 0 0 0 0 0 0 0 0 0 0 0 0 0 0 -5 0 -2 0 -214 -142 -163 -228 -221 -309 -327 -333 -417 -477 -462
0 0 0 0 0 0 0 0 0 0 0 0 0 0 0 0 0 0 0 0 0 0 0 0 0 0 0 0 0 0 -224 -179 -252 -326 -167 -135 -166 -273 -283 -280 -322 -397 -455 -516 -602
Wind_Speed
18 19 19 19 19 19 19 18 18 17 17 19 20 19 20 19 19 3 6 9 8 18 9 11 9 9 6 4 2 6 4 1 4 3 4 3 9 10 8 16 8 4 14 12 23
19 19 20 20 19 19 19 19 19 18 17 18 19 18 18 18 5 7 10 11 9 20 8 12 11 12 4 7 6 4 5 12 13 6 3 8 8 13 9 14 12 19 11 19 23
19 20 20 20 21 21 20 19 19 18 18 18 18 19 18 14 5 8 2 12 19 18 2 8 2 9 9 6 8 5 5 6 12 5 7 7 10 13 16 12 24 23 20 19 19
19 19 20 20 20 21 21 21 21 19 18 16 16 17 19 1 5 1 5 10 13 9 4 3 7 7 7 7 5 2 8 10 9 8 8 5 13 7 12 7 20 21 19 16 17
19 20 20 20 21 21 21 21 21 20 18 15 14 13 5 1 12 3 7 8 6 3 5 4 7 3 4 2 7 6 0 8 14 7 11 15 4 7 10 13 17 18 18 14 13
20 21 21 21 21 21 22 21 21 21 19 14 11 9 2 5 7 4 7 6 5 6 5 7 10 1 7 1 5 12 21 17 16 14 10 6 5 9 6 10 13 17 16 13 12
22 22 22 23 23 23 22 22 22 22 20 15 9 4 2 15 3 4 6 6 4 6 5 7 5 2 7 8 9 14 14 7 4 7 7 8 6 6 10 14 10 15 15 13 13
23 23 23 24 24 24 23 24 23 22 19 12 4 2 9 8 6 8 4 8 8 10 9 9 4 4 5 4 6 13 4 5 4 3 1 6 4 8 5 9 7 15 14 14 11
23 22 23 24 23 24 24 26 25 19 10 4 2 3 12 9 5 13 10 8 4 7 7 12 3 4 5 4 6 6 2 6 3 2 2 5 6 6 6 4 10 12 15 14 9
20 22 23 24 24 24 26 27 12 7 4 6 5 3 5 5 4 4 9 8 6 2 5 4 2 1 4 6 4 3 4 5 6 7 5 2 3 15 15 15 15 13 13 14 13
21 22 23 25 24 21 15 7 7 6 3 7 6 6 13 6 7 6 6 5 2 2 4 5 2 5 11 6 7 6 4 4 3 4 4 5 1 1 17 13 9 7 8 12 13
22 22 23 26 25 23 1 3 6 5 9 10 15 15 22 2 8 10 7 7 5 7 4 2 7 10 10 5 8 9 1 2 4 8 1 2 7 6 8 8 11 9 8 12 11
22 22 23 27 30 1 2 6 8 5 3 11 9 9 10 10 10 14 6 5 5 6 6 7 6 9 10 8 10 12 5 7 7 10 2 6 7 6 4 5 9 7 7 5 15
21 21 22 28 4 6 6 8 7 3 5 11 5 10 7 6 6 9 9 8 4 12 6 7 8 8 9 10 9 7 7 7 14 10 4 7 4 4 8 8 9 9 13 9 11
19 19 18 12 5 4 7 11 11 7 3 4 3 1 5 11 4 7 5 4 8 5 8 9 9 7 14 12 8 16 6 9 12 6 4 3 1 6 5 8 13 10 10 10 10
19 17 16 0 2 10 9 11 6 7 6 5 2 6 6 6 6 2 3 5 5 4 3 9 5 7 8 10 7 12 6 0 6 6 3 8 5 6 7 19 17 15 14 13 10
22 19 10 4 6 3 7 6 7 3 8 10 6 5 4 6 5 5 3 3 7 4 3 3 6 6 5 4 6 2 7 3 1 3 8 8 5 14 18 18 19 23 21 16 10
22 23 5 7 6 3 5 7 3 7 7 10 7 10 10 5 6 8 5 3 3 6 3 8 10 8 3 11 8 5 10 8 6 6 13 9 8 12 22 12 15 18 20 20 16
19 3 3 6 8 4 6 5 5 4 7 9 9 7 9 9 5 3 7 9 9 10 10 6 6 2 11 8 7 5 5 10 4 2 3 5 7 6 3 9 8 16 9 17 20
3 4 5 5 8 5 6 3 4 5 9 5 6 4 5 7 6 4 3 6 7 13 8 10 2 7 10 4 8 10 6 1 2 5 5 5 2 5 2 2 3 10 10 18 21
3 5 6 5 6 6 3 6 6 10 11 2 5 4 4 4 3 5 4 8 7 5 9 8 7 10 4 8 9 2 2 2 5 5 7 3 7 8 10 6 9 9 8 5 6
3 3 5 4 5 1 2 4 5 14 13 9 9 8 6 6 5 3 4 4 7 4 2 8 7 7 15 6 4 4 7 9 6 7 2 6 7 6 11 12 17 14 11 12 3
2 4 4 7 2 4 7 8 6 16 16 9 11 9 7 7 6 6 7 7 6 3 3 1 2 2 10 8 2 5 5 6 5 4 9 7 6 3 6 23 27 25 15 10 2
3 5 6 6 1 5 4 6 10 11 8 10 6 5 8 8 6 6 9 6 13 1 3 3 4 7 9 7 3 2 4 3 8 6 4 7 6 9 5 10 16 21 18 14 15
4 3 2 4 5 6 6 5 8 10 8 11 7 10 6 5 8 7 8 12 16 7 1 5 2 3 5 5 2 3 4 7 4 8 11 9 8 1 6 11 9 14 15 18 17
3 3 5 4 3 8 6 6 8 8 5 6 6 9 4 3 4 6 6 3 7 12 7 4 3 1 4 3 5 4 14 12 4 4 7 16 14 8 14 18 15 13 13 17 14
4 4 5 6 5 6 2 4 4 3 6 6 7 4 4 4 6 14 13 13 14 3 8 2 3 3 4 3 5 8 14 2 12 16 3 10 9 16 17 18 12 11 13 13 12
Wind_Direction
356 354 351 349 346 344 341 340 337 334 332 330 330 327 327 330 316 155 248 216 178 174 135 142 180 185 171 197 197 161 110 76 266 298 321 88 133 155 125 132 161 163 145 139 139
354 351 348 346 344 340 336 334 332 331 332 331 327 323 326 334 324 258 248 167 164 169 163 168 195 169 213 200 199 161 146 191 211 176 202 311 320 118 121 149 114 119 132 122 136
350 348 346 344 340 336 333 330 329 329 330 330 330 325 326 331 326 258 18 157 159 171 239 205 185 154 219 153 187 183 191 170 204 191 84 350 342 335 125 146 148 148 146 136 136
347 345 342 339 336 333 330 327 325 324 325 328 328 322 319 268 234 300 151 158 171 165 304 256 213 209 234 226 169 215 183 168 170 126 114 20 312 8 344 178 151 142 143 144 139
346 341 337 335 333 330 326 322 319 317 319 324 325 322 347 258 249 172 134 127 125 169 220 229 258 191 249 230 163 215 64 147 122 116 111 130 288 340 12 157 141 137 145 153 146
344 340 336 333 330 327 324 319 315 312 310 315 318 312 197 218 253 133 135 135 176 199 239 197 235 122 270 261 40 99 97 104 105 110 76 154 85 37 356 11 144 155 152 157 171
341 337 334 330 327 325 321 316 310 305 302 305 306 265 246 232 231 108 148 190 222 193 222 241 263 196 309 303 112 105 83 83 30 153 125 162 121 103 330 348 200 168 158 168 188
340 334 330 327 324 322 320 311 302 297 293 287 259 209 247 243 241 263 214 268 230 222 225 258 264 282 230 278 33 154 112 78 223 312 333 249 183 101 71 307 260 180 174 178 192
335 326 327 325 323 321 317 307 300 287 251 203 121 166 267 290 183 234 172 225 237 226 244 258 266 242 358 53 22 346 164 127 241 345 145 245 128 160 150 242 285 222 186 184 183
327 326 325 324 323 323 319 305 291 308 176 186 254 1 273 261 266 225 177 207 219 251 254 250 55 198 14 72 209 246 142 164 194 174 208 204 115 155 171 186 240 233 201 188 177
328 327 325 323 322 323 337 356 11 2 63 205 202 255 288 320 296 225 208 180 167 143 193 263 139 214 239 208 220 221 250 192 112 187 99 212 107 123 195 195 222 195 203 203 175
327 328 326 323 320 323 138 27 239 222 300 242 246 241 259 1 308 311 137 150 159 204 156 297 216 225 240 214 252 258 11 69 46 172 74 221 252 257 191 198 191 182 203 189 169
326 328 328 323 318 32 211 241 277 354 308 278 215 228 226 151 218 262 157 165 165 193 202 191 214 213 231 248 266 274 167 184 188 183 44 102 296 244 240 188 176 202 186 217 177
323 325 330 330 14 323 287 291 323 128 32 279 234 254 162 156 282 218 189 153 180 199 217 224 228 224 232 231 232 267 240 216 142 138 216 161 255 216 215 236 209 191 202 193 195
320 321 328 324 289 320 259 332 325 55 348 259 238 153 155 151 184 225 198 118 189 194 152 227 177 203 231 231 225 246 245 173 171 146 102 217 61 262 199 202 242 212 209 202 209
315 313 331 75 252 243 324 304 46 47 262 313 187 189 101 176 240 330 130 86 156 198 234 209 218 203 226 249 244 271 294 146 164 129 235 243 158 261 201 211 200 229 221 219 214
310 306 308 266 237 323 343 36 48 152 305 347 332 18 235 163 241 219 225 161 189 145 301 308 244 250 224 251 278 220 70 326 73 28 234 184 207 232 207 226 204 191 217 228 205
310 312 240 208 236 332 32 53 68 282 277 318 318 303 187 160 218 200 180 230 239 116 126 187 254 180 235 191 206 200 154 165 185 163 235 146 230 247 220 208 199 199 199 205 197
315 324 278 257 207 97 66 63 218 325 318 318 337 13 7 14 3 1 207 196 215 169 167 168 253 324 222 230 157 285 176 188 159 333 50 225 282 323 19 118 160 184 214 182 196
11 354 270 232 127 73 73 240 257 265 319 313 39 55 349 337 46 49 302 238 221 196 167 217 219 216 255 19 256 189 175 237 356 185 198 276 228 193 63 277 359 177 191 195 189
19 22 261 136 79 54 152 228 272 294 340 4 332 309 302 351 12 358 302 289 3 309 181 162 133 266 119 191 229 306 192 131 136 149 175 229 263 212 163 197 198 226 137 66 263
9 24 290 70 45 45 311 249 316 333 360 2 37 358 15 337 307 17 319 256 330 334 123 202 160 202 234 227 189 181 225 174 168 255 219 147 272 297 172 152 94 69 69 48 38
34 272 317 81 64 331 318 354 42 20 28 360 17 33 332 17 9 340 300 311 350 48 323 307 95 154 312 331 20 199 232 187 158 119 201 172 247 358 112 127 122 120 105 62 46
64 22 331 36 10 88 25 356 5 16 42 17 38 51 1 8 337 326 337 336 325 260 185 111 115 159 195 201 185 321 334 256 204 173 198 201 200 85 1 125 118 103 109 86 54
38 298 202 326 349 60 72 13 10 9 1 18 25 45 11 318 326 358 354 329 321 312 15 102 155 213 196 207 179 210 313 306 162 233 191 220 163 309 151 92 76 93 87 87 73
67 35 342 279 322 63 21 355 21 358 7 2 357 327 57 317 175 290 3 342 269 330 309 19 274 16 293 89 41 344 356 318 341 269 108 112 88 53 114 86 74 70 77 81 60
312 318 109 294 7 71 33 45 32 33 321 339 309 351 335 250 276 269 234 239 247 303 303 340 104 69 271 342 70 34 335 84 70 26 147 124 134 120 73 77 72 71 65 64 77